Regional Weather Roundup
Issued by NWS Cleveland, OH

Home | Current Version | Previous Version | Graphics & Text | Print | Product List | Glossary On
Versions: 1 2 3 4 5 6 7 8 9 10 11 12 13 14 15 16 17 18 19 20 21 22 23 24 25 26 27 28 29 30 31 32 33 34 35 36 37 38 39 40 41 42 43 44 45 46 47 48 49 50
000
ASUS41 KCLE 020210
RWRCLE
OHIO REGIONAL WEATHER ROUNDUP
NATIONAL WEATHER SERVICE WILMINGTON, OH
1000 PM EDT WED OCT 01 2014

NOTE: "FAIR" INDICATES FEW OR NO CLOUDS BELOW 12,000 FEET WITH NO
SIGNIFICANT WEATHER AND/OR OBSTRUCTIONS TO VISIBILITY.

OHZ001>008-015>018-024>027-034-035-043-044-020300-
   NORTHWEST OHIO

CITY           SKY/WX    TMP DP  RH WIND       PRES   REMARKS
DEFIANCE       CLEAR     52  48  86 CALM      30.02S
FINDLAY        CLEAR     58  52  80 E7        30.02R
TOLEDO EXPRESS CLEAR     53  52  96 CALM      30.03R FOG
TOLEDO METCALF CLEAR     56  53  90 E5        30.04R
LIMA           CLEAR     53  48  83 E5        30.02S
$$

OHZ009>014-019>023-028>033-038-089-020300-
   NORTHEAST OHIO

CITY           SKY/WX    TMP DP  RH WIND       PRES   REMARKS
CLE-HOPKINS    PTCLDY    59  57  93 CALM      30.06R FOG
CLE-LAKEFRONT  CLEAR     62  58  86 E3        30.03R
CUY CO. ARPT   PTCLDY    61  59  94 SE6       30.05R
LORAIN-ELYRIA  CLOUDY    59  56  89 CALM      30.05S FOG
ASHTABULA      FOG       55  54  96 E3        30.06R VSB 1/4
AKRON-CANTON   CLEAR     56  52  86 CALM      30.05R FOG
WOOSTER        FOG       49  47  93 CALM      30.06R VSB 1/4
MANSFIELD      CLEAR     56  54  93 SE3       30.05S
YOUNGSTOWN     CLEAR     54  52  93 CALM      30.05R
$$

OHZ042-051>053-060>062-070>072-077>081-020300-
  SOUTHWEST OHIO

CITY           SKY/WX    TMP DP  RH WIND       PRES   REMARKS
CINC-COVINGTON CLEAR     65  51  60 E6        30.01R
CINC-LUNKEN    CLEAR     58  55  90 CALM      30.02R
HAMILTON       CLEAR     55  51  86 CALM      30.02S
DAYTON         CLEAR     59  50  72 E3        30.03F
WRIGHT-PAT AFB CLEAR     54  51  87 CALM      30.02S
DAYTON GENERAL CLEAR     54  50  86 NE6       30.01F
WILMINGTON     CLEAR     52  46  80 E3        30.03R
$$

OHZ036-037-039>041-045>050-054>059-063>069-073>076-082>088-020300-
  CENTRAL AND SOUTHEAST OHIO

CITY           SKY/WX    TMP DP  RH WIND       PRES   REMARKS
COLUMBUS       CLEAR     57  51  80 CALM      30.04R
OSU AIRPORT    CLEAR     56  52  86 CALM      30.04R
BOLTON FIELD   CLEAR     53  51  92 CALM      30.05R
RICKENBACK AFB CLEAR     54  50  86 NE5       30.04R
NEWARK         FOG       49  47  93 CALM      30.05R VSB 1/4
MARION         CLEAR     56  52  86 S3        30.05R
LANCASTER      CLEAR     49  47  93 CALM      30.05R
ZANESVILLE     CLEAR     54  50  86 CALM      30.05R
NEW PHILLY     CLEAR     53  51  93 CALM      30.06R FOG
$$


USA.gov is the U.S. government's official web portal to all federal, state and local government web resources and services.